Tracking 26325 objects as of 29-Nov-2022
HD Live streaming from Space Station
objects crossing your sky now

OPS 7898 (P/L 3)

Track OPS 7898 (P/L 3) now!
10-day predictions
OPS 7898 (P/L 3) is classified as:


NORAD ID: 5681
Int'l Code: 1971-110D
Perigee: 984.2 km
Apogee: 997.3 km
Inclination: 70.0 °
Period: 104.8 minutes
Semi major axis: 7361 km
RCS: Unknown
Launch date: December 14, 1971
Source: United States (US)
Launch site: AIR FORCE WESTERN TEST RANGE (AFWTR)
aabbcc
Your satellite tracking list
Your tracking list is empty




NASA's NSSDC Master Catalog

Two Line Element Set (TLE):
1  5681U 71110D   22332.53890981 -.00000022  00000-0  29654-4 0  9990
2  5681  69.9875 160.8894 0008901 338.3053  21.7663 13.74455671178638
Source of the keplerian elements: McCants